Location: Warszawa
(52.2500°N, 21.0000°E)
Time: 23:37:25
(UTC+02:00)

AO-27 - Pass Details

Date: 20 April 2024
Orbit: 783 x 797 km, 98.8° (Epoch: 26 May)

Event Time Altitude Azimuth Distance (km) Brightness Sun altitude
Exits shadow 20:25:57 - 154° (SSE) 3,084 10.2 -6.7°
Reaches altitude 10° 20:27:45 10° 152° (SSE) 2,364 9.6 -6.9°
Maximum altitude 20:32:57 70° 70° (ENE) 850 7.7 -7.6°
Drops below altitude 10° 20:38:11 10° 348° (NNW) 2,382 10.8 -8.3°
Sets 20:40:32 0° 346° (NNW) 3,315 11.7 -8.6°
